Location: Neuvy Saint Sepulchre
(46.5953°N, 1.8122°E)
Time: 10:52:23
(UTC+02:00)

ISS - Pass Details

Date: 26 April 2026
Orbit: 415 x 424 km, 51.6° (Epoch: 14 April)

Event Time Altitude Azimuth Distance (km) Brightness Sun altitude
Exits shadow 05:31:19 15° 275° (W) 1,251 -1.8 -12.2°
Maximum altitude 05:33:54 44° 345° (NNW) 596 -2.9 -11.9°
Drops below altitude 10° 05:37:09 10° 59° (ENE) 1,505 0.6 -11.4°
Sets 05:39:19 0° 66° (ENE) 2,372 2.0 -11.1°
